Wind_Speed
20 20 21 21 22 22 23 23 24 25 26 26 27 27 28 30 30 31 32 33 34 35 37 38 39 40 40 40 41 40 41 42 44 45 45 44 43 41
22 23 23 23 24 24 24 24 26 27 28 30 30 30 31 32 33 34 34 35 36 37 38 39 41 42 42 43 43 43 43 43 44 45 46 47 46 45
24 25 25 25 25 25 25 26 27 27 28 30 32 33 33 34 35 36 37 38 38 40 41 41 42 43 44 45 45 45 46 45 46 46 46 47 49 48
27 27 28 28 27 27 27 28 29 29 29 30 32 33 34 35 36 38 39 40 41 42 43 44 44 45 45 46 47 47 48 48 48 48 47 47 48 50
29 30 30 30 30 30 30 31 31 31 31 31 32 34 35 36 37 38 40 41 42 44 45 46 47 48 48 48 49 49 50 50 50 50 50 49 49 50
32 32 32 32 32 32 32 32 32 32 33 32 33 35 36 37 38 39 40 41 42 44 45 47 49 49 50 50 50 51 52 52 51 52 52 51 51 50
34 34 34 34 34 33 34 34 34 35 35 35 35 36 37 39 39 40 40 41 42 43 45 47 49 50 51 52 52 52 53 53 53 53 54 54 52 52
36 36 36 36 36 36 36 36 37 37 38 38 38 38 39 41 41 41 41 40 41 43 44 45 47 48 51 52 53 54 54 54 55 54 54 55 54 53
38 39 39 38 38 38 38 39 39 39 40 40 39 40 41 42 42 42 41 41 41 42 43 43 45 46 48 50 52 53 54 55 56 56 55 55 56 56
41 41 41 41 41 41 40 40 41 41 42 42 41 41 42 43 43 42 42 41 41 42 43 42 43 45 46 47 49 51 53 54 55 56 57 56 56 56
44 43 43 43 44 43 43 42 43 43 44 43 42 42 42 42 43 42 42 41 40 40 42 42 42 44 45 45 47 49 51 53 54 55 56 57 57 57
47 46 46 46 47 46 46 45 45 45 46 45 44 43 42 42 42 42 41 40 39 38 40 41 41 43 43 45 46 47 48 50 52 54 55 56 57 57
50 49 49 50 49 49 49 48 48 47 46 46 44 43 43 43 43 42 41 40 39 38 39 41 40 41 41 42 44 46 47 48 50 52 54 55 56 57
53 53 53 53 53 53 52 51 50 49 48 46 44 43 43 43 42 41 40 40 39 38 39 39 39 40 40 40 41 45 46 47 48 50 52 54 55 56
57 56 56 57 56 55 54 53 52 50 48 46 43 42 43 43 42 40 40 39 38 38 38 39 39 40 40 39 40 42 45 46 47 48 50 52 54 55
61 60 60 60 58 57 55 54 52 50 48 45 43 42 42 41 40 40 39 38 37 37 37 38 38 38 39 39 39 40 43 44 46 48 49 50 52 53
64 63 62 61 59 57 55 53 51 49 47 45 43 42 41 40 39 39 38 37 36 36 36 37 38 37 37 37 38 39 41 43 45 47 48 49 49 51
66 65 63 61 59 56 54 52 50 48 46 45 43 41 40 39 39 38 37 36 35 35 35 37 37 37 36 36 37 38 40 42 43 45 47 47 48 49
66 64 61 59 57 54 53 51 49 46 44 43 41 40 39 39 38 37 36 35 35 34 35 36 36 37 37 36 37 39 39 40 42 43 44 46 47 49
64 61 59 56 54 52 50 48 46 44 43 42 40 39 38 38 36 35 35 35 35 34 34 34 35 36 36 36 36 38 39 39 40 41 42 44 45 47
58 56 53 51 50 48 46 44 43 42 42 41 39 38 37 36 35 34 34 34 33 33 32 33 34 34 34 34 34 35 37 38 39 40 41 42 43 45
49 47 45 44 43 41 40 39 39 39 38 37 36 35 34 34 34 34 33 33 32 32 32 32 32 32 32 32 32 33 35 36 37 38 39 40 41 43
40 39 38 37 36 35 35 34 34 34 34 34 33 33 33 33 33 33 33 32 32 32 31 31 32 32 32 32 32 32 34 35 36 36 37 38 39 42
Wind_Direction
313 312 310 306 303 299 297 294 292 291 288 284 281 277 274 272 269 267 265 262 260 258 256 253 251 249 247 245 243 242 241 239 238 238 237 237 237 237
308 308 307 305 303 300 297 294 291 290 288 286 284 280 276 273 271 269 266 264 261 259 257 255 253 251 249 246 244 243 242 241 239 238 238 237 237 238
306 306 305 304 302 301 297 295 293 291 289 287 285 282 279 276 273 270 267 265 262 260 258 256 254 252 250 247 245 244 242 242 241 240 239 238 238 237
304 304 304 302 300 299 298 296 294 292 290 288 287 285 282 279 276 273 269 266 263 261 259 256 255 253 251 249 247 245 244 243 242 240 240 239 238 237
302 303 302 301 299 298 298 296 295 294 292 290 288 286 284 282 279 276 272 269 265 262 260 257 255 254 252 250 248 246 245 243 242 240 239 238 238 238
301 301 301 300 299 298 298 297 296 295 294 292 290 288 286 284 281 278 275 272 269 265 262 259 256 254 253 251 248 246 245 243 242 241 239 238 238 238
299 299 299 299 298 297 297 297 296 296 296 295 292 290 288 286 283 281 278 275 271 268 265 261 258 255 252 250 248 246 245 244 243 242 240 239 238 238
298 298 298 297 297 296 296 296 296 296 296 295 294 292 289 287 285 282 279 276 273 270 267 264 260 257 254 251 249 247 245 244 243 242 241 239 238 238
297 297 297 296 296 295 295 296 296 296 296 296 295 293 290 288 285 282 279 276 273 270 268 264 261 257 254 252 250 247 246 244 242 241 241 240 239 238
296 296 295 295 294 294 294 294 295 295 295 296 295 293 290 287 284 281 279 276 273 270 267 264 261 258 255 253 251 248 246 245 243 241 240 240 239 238
294 294 293 293 293 293 293 293 293 294 295 295 294 291 289 286 283 281 278 276 273 270 268 264 260 258 256 254 251 249 247 245 243 242 240 239 239 238
292 292 292 292 292 292 293 294 293 292 294 294 293 290 288 285 283 280 277 275 272 268 267 265 261 258 255 253 252 250 247 246 244 242 241 240 239 238
290 291 291 291 291 291 292 293 293 292 292 292 291 289 287 285 282 279 276 274 271 268 266 265 262 260 256 251 251 250 248 246 244 243 241 240 239 238
289 289 289 290 289 290 291 291 291 291 291 291 290 287 285 284 282 279 276 273 270 268 266 264 262 260 257 252 249 250 249 247 245 243 242 240 238 237
287 287 287 287 288 288 289 289 288 289 289 289 287 285 283 282 280 278 275 272 270 267 265 264 262 259 257 254 250 249 249 248 247 244 242 239 238 236
285 285 285 286 286 286 286 286 286 286 287 286 284 283 282 281 279 277 275 272 270 268 265 263 262 259 257 254 251 249 248 248 247 244 241 239 237 236
283 283 283 283 283 283 283 283 282 283 283 282 282 281 280 279 278 276 274 272 269 267 265 263 261 259 257 254 252 250 248 247 246 245 242 239 237 236
281 281 280 280 280 279 279 279 279 279 279 279 279 277 277 276 275 274 273 271 270 266 264 263 261 258 256 254 252 250 248 247 246 245 242 239 237 236
281 280 279 278 277 275 275 274 274 275 275 276 275 274 274 274 274 272 270 270 269 266 264 264 262 260 257 254 253 252 249 248 246 244 242 240 238 237
280 278 276 275 274 273 271 270 270 271 271 272 272 272 272 272 271 270 268 268 267 265 264 264 263 261 258 255 253 252 251 248 247 244 242 240 238 237
278 276 274 273 272 271 269 268 267 266 267 268 268 269 269 269 269 269 267 267 266 264 264 263 262 261 259 256 254 252 251 249 247 244 241 240 237 236
277 274 271 268 268 267 265 265 264 262 263 265 266 267 268 268 268 267 267 266 265 263 262 261 261 261 259 257 254 251 249 249 246 243 241 239 237 235
274 271 267 266 265 262 262 263 261 261 262 264 265 266 267 268 268 267 266 265 264 263 261 260 260 260 259 257 256 252 249 247 246 242 239 237 236 234
Height
5837 5835 5833 5831 5830 5828 5827 5825 5824 5822 5821 5820 5820 5820 5820 5820 5820 5820 5821 5822 5823 5824 5825 5827 5830 5832 5835 5838 5841 5844 5847 5851 5855 5859 5864 5868 5872 5876
5832 5830 5828 5826 5824 5822 5821 5819 5817 5816 5814 5812 5811 5811 5811 5811 5811 5811 5811 5812 5813 5814 5815 5817 5819 5822 5824 5827 5830 5834 5837 5841 5844 5849 5853 5858 5862 5867
5826 5824 5822 5819 5817 5815 5814 5812 5810 5808 5807 5804 5803 5801 5801 5801 5801 5801 5801 5801 5802 5803 5804 5806 5808 5810 5813 5816 5819 5822 5826 5830 5834 5838 5842 5847 5851 5856
5819 5817 5815 5812 5810 5808 5806 5804 5802 5800 5799 5796 5794 5792 5791 5790 5790 5790 5790 5790 5790 5791 5792 5794 5796 5798 5801 5804 5807 5811 5814 5818 5822 5826 5831 5835 5840 5844
5812 5810 5807 5805 5802 5800 5797 5795 5793 5791 5789 5787 5785 5783 5781 5780 5779 5778 5778 5778 5778 5778 5780 5781 5783 5785 5788 5791 5794 5798 5802 5806 5810 5814 5818 5823 5828 5833
5804 5802 5799 5796 5794 5791 5789 5786 5784 5781 5779 5777 5775 5772 5770 5768 5767 5766 5766 5765 5765 5765 5766 5767 5769 5771 5774 5778 5781 5784 5788 5792 5796 5801 5806 5811 5816 5821
5796 5793 5790 5787 5784 5782 5779 5776 5774 5771 5768 5766 5764 5762 5759 5756 5755 5754 5754 5753 5752 5752 5752 5753 5755 5758 5759 5762 5766 5770 5774 5778 5783 5787 5792 5798 5803 5808
5786 5783 5781 5778 5775 5772 5769 5766 5763 5760 5757 5755 5753 5750 5747 5744 5743 5742 5741 5740 5740 5739 5739 5740 5740 5743 5745 5748 5751 5755 5759 5764 5769 5774 5779 5784 5790 5795
5776 5773 5770 5767 5764 5761 5759 5756 5752 5749 5746 5743 5741 5738 5735 5732 5730 5729 5727 5727 5727 5725 5725 5726 5726 5728 5730 5733 5736 5740 5744 5749 5754 5759 5764 5770 5776 5782
5765 5762 5759 5756 5753 5750 5747 5744 5741 5737 5733 5731 5729 5726 5722 5719 5716 5715 5714 5713 5713 5712 5711 5713 5713 5714 5717 5719 5722 5726 5730 5734 5739 5744 5750 5756 5761 5767
5753 5750 5747 5744 5740 5737 5735 5732 5729 5724 5721 5718 5716 5713 5709 5706 5703 5702 5701 5700 5700 5699 5698 5699 5701 5701 5704 5706 5708 5711 5715 5719 5724 5729 5735 5741 5747 5753
5740 5737 5733 5730 5727 5723 5721 5718 5715 5712 5708 5705 5702 5699 5696 5693 5690 5689 5687 5687 5687 5687 5685 5685 5687 5688 5691 5693 5694 5697 5701 5705 5710 5715 5720 5726 5732 5738
5725 5723 5719 5716 5713 5709 5706 5704 5701 5697 5694 5691 5688 5685 5682 5679 5677 5675 5674 5674 5674 5675 5673 5673 5674 5675 5677 5681 5682 5684 5687 5691 5695 5700 5706 5711 5717 5724
5710 5707 5704 5700 5697 5694 5691 5689 5685 5682 5680 5677 5674 5671 5668 5666 5664 5662 5662 5661 5661 5661 5661 5660 5661 5662 5664 5667 5670 5671 5673 5677 5682 5687 5691 5697 5703 5709
5693 5690 5687 5684 5680 5678 5675 5672 5669 5667 5665 5663 5661 5658 5655 5652 5651 5649 5648 5648 5648 5648 5648 5648 5649 5650 5652 5654 5657 5659 5661 5664 5668 5673 5677 5682 5688 5695
5674 5672 5669 5666 5663 5661 5658 5656 5653 5651 5649 5648 5646 5644 5641 5640 5638 5637 5636 5635 5636 5636 5636 5636 5636 5638 5639 5641 5644 5647 5649 5652 5655 5659 5664 5669 5675 5681
5654 5652 5650 5648 5645 5643 5641 5639 5637 5635 5634 5633 5631 5630 5628 5627 5625 5624 5623 5623 5624 5624 5624 5624 5624 5626 5627 5630 5632 5635 5637 5639 5642 5645 5650 5656 5662 5668
5633 5632 5630 5628 5626 5625 5623 5622 5621 5620 5619 5618 5617 5617 5615 5614 5613 5612 5612 5612 5612 5612 5612 5612 5612 5614 5616 5619 5620 5622 5624 5627 5630 5633 5638 5644 5650 5655
5611 5610 5609 5608 5607 5606 5606 5605 5605 5604 5603 5604 5604 5603 5603 5602 5601 5600 5600 5600 5600 5600 5601 5600 5601 5602 5604 5607 5609 5610 5612 5615 5618 5622 5626 5631 5637 5642
5589 5588 5588 5587 5587 5587 5588 5588 5588 5588 5589 5590 5590 5590 5590 5589 5589 5589 5588 5588 5589 5589 5589 5590 5590 5591 5592 5595 5597 5599 5601 5603 5606 5610 5614 5619 5625 5630
5568 5567 5567 5568 5569 5570 5570 5571 5573 5574 5575 5576 5576 5577 5577 5577 5577 5577 5577 5577 5577 5578 5578 5579 5579 5579 5581 5583 5586 5588 5589 5591 5594 5598 5602 5607 5613 5619
5548 5548 5549 5550 5551 5553 5554 5556 5558 5560 5561 5563 5564 5564 5565 5565 5566 5566 5566 5566 5566 5567 5568 5568 5568 5569 5570 5572 5574 5576 5578 5580 5583 5587 5591 5596 5600 5607
5532 5532 5533 5535 5537 5539 5541 5543 5545 5547 5549 5551 5552 5553 5554 5554 5554 5554 5555 5555 5555 5556 5557 5557 5558 5559 5560 5562 5563 5565 5567 5569 5572 5576 5581 5585 5589 5595